When you browse on this site, cookies collect data to enhance your experience and personalize the content and advertising you see.
Visit our Privacy Policy to learn more. By continuing to use the site, you agree to this use of cookies and data.
  • In Netherlands
  • List of Countries
  • For 7 days
  • Water Temperature
  • Weather Map
  • Weather Widgets
  • user-avatar
    Login

    Hourly Weather Holoholnya

    Today, 25 May, Monday

    Time Temperature Precipitation Wind Pressure Humidity
    00:00 +5°C° 0 mm 1 mps 748 mmHg 95%
    01:00 +5°C° 0 mm 1 mps 748 mmHg 95%
    02:00 +5°C° 0 mm 1 mps 748 mmHg 96%
    03:00 +6°C° 0 mm 1 mps 748 mmHg 94%
    04:00 +6°C° 0 mm 1 mps 749 mmHg 93%
    05:00 +6°C° 0 mm 0 mps 749 mmHg 91%
    06:00 +8°C° 0 mm 0 mps 749 mmHg 83%
    07:00 +10°C° 0 mm 0 mps 749 mmHg 76%
    08:00 +13°C° 0 mm 0 mps 750 mmHg 68%
    09:00 +15°C° 0 mm 1 mps 750 mmHg 61%
    10:00 +18°C° 0 mm 1 mps 750 mmHg 54%
    11:00 +19°C° 0 mm 1 mps 750 mmHg 47%
    12:00 +19°C° 0.1 mm 1 mps 750 mmHg 48%
    13:00 +18°C° 0.1 mm 1 mps 751 mmHg 50%
    14:00 +18°C° 0.1 mm 1 mps 751 mmHg 52%
    15:00 +18°C° 0.3 mm 1 mps 751 mmHg 57%
    16:00 +16°C° 0.3 mm 1 mps 751 mmHg 62%
    17:00 +16°C° 0.3 mm 1 mps 751 mmHg 67%
    18:00 +14°C° 0 mm 1 mps 752 mmHg 72%
    19:00 +13°C° 0 mm 1 mps 752 mmHg 77%
    20:00 +11°C° 0 mm 1 mps 753 mmHg 82%
    21:00 +10°C° 0 mm 1 mps 753 mmHg 84%
    22:00 +8°C° 0 mm 0 mps 753 mmHg 86%
    23:00 +7°C° 0 mm 0 mps 754 mmHg 88%

    Tomorrow, 26 May, Tuesday

    Time Temperature Precipitation Wind Pressure Humidity
    00:00 +7°C° 0 mm 0 mps 754 mmHg 89%
    01:00 +7°C° 0 mm 0 mps 754 mmHg 90%
    02:00 +6°C° 0 mm 0 mps 754 mmHg 90%
    03:00 +7°C° 0 mm 0 mps 755 mmHg 89%
    04:00 +8°C° 0 mm 0 mps 755 mmHg 87%
    05:00 +9°C° 0 mm 0 mps 755 mmHg 86%
    06:00 +12°C° 0 mm 1 mps 755 mmHg 78%
    07:00 +14°C° 0 mm 1 mps 755 mmHg 71%
    08:00 +16°C° 0 mm 1 mps 756 mmHg 64%
    09:00 +18°C° 0 mm 1 mps 756 mmHg 58%
    10:00 +19°C° 0 mm 1 mps 756 mmHg 53%
    11:00 +20°C° 0 mm 1 mps 756 mmHg 48%
    12:00 +20°C° 0 mm 1 mps 755 mmHg 47%
    13:00 +19°C° 0 mm 2 mps 755 mmHg 46%
    14:00 +19°C° 0 mm 2 mps 755 mmHg 45%
    15:00 +19°C° 0.1 mm 2 mps 755 mmHg 50%
    16:00 +18°C° 0.1 mm 2 mps 755 mmHg 55%
    17:00 +18°C° 0.1 mm 3 mps 755 mmHg 60%
    18:00 +16°C° 0 mm 2 mps 755 mmHg 67%
    19:00 +14°C° 0 mm 2 mps 754 mmHg 75%
    20:00 +13°C° 0 mm 2 mps 754 mmHg 82%
    21:00 +12°C° 0 mm 2 mps 754 mmHg 85%
    22:00 +11°C° 0 mm 1 mps 754 mmHg 88%
    23:00 +10°C° 0 mm 1 mps 754 mmHg 92%

    Day after tomorrow, 27 May, Wednesday

    Time Temperature Precipitation Wind Pressure Humidity
    00:00 +11°C° 0 mm 1 mps 754 mmHg 91%
    01:00 +11°C° 0 mm 1 mps 754 mmHg 91%
    02:00 +11°C° 0 mm 1 mps 753 mmHg 91%
    03:00 +11°C° 0.1 mm 1 mps 753 mmHg 91%
    04:00 +11°C° 0.1 mm 1 mps 753 mmHg 91%
    05:00 +10°C° 0.1 mm 2 mps 753 mmHg 92%
    06:00 +12°C° 0.3 mm 2 mps 753 mmHg 90%
    07:00 +12°C° 0.3 mm 1 mps 753 mmHg 88%
    08:00 +13°C° 0.3 mm 1 mps 753 mmHg 86%
    09:00 +13°C° 0.3 mm 1 mps 753 mmHg 84%
    10:00 +14°C° 0.3 mm 1 mps 752 mmHg 82%
    11:00 +14°C° 0.3 mm 1 mps 752 mmHg 79%
    12:00 +16°C° 0.1 mm 1 mps 752 mmHg 72%
    13:00 +18°C° 0.1 mm 1 mps 751 mmHg 64%
    14:00 +19°C° 0.1 mm 1 mps 751 mmHg 56%
    15:00 +19°C° 0.2 mm 1 mps 751 mmHg 60%
    16:00 +18°C° 0.2 mm 1 mps 751 mmHg 63%
    17:00 +18°C° 0.2 mm 1 mps 750 mmHg 67%
    18:00 +15°C° 0.3 mm 1 mps 750 mmHg 74%
    19:00 +14°C° 0.3 mm 1 mps 750 mmHg 81%
    20:00 +12°C° 0.3 mm 1 mps 750 mmHg 87%
    21:00 +12°C° 0 mm 1 mps 750 mmHg 88%
    22:00 +11°C° 0 mm 1 mps 750 mmHg 89%
    23:00 +11°C° 0 mm 1 mps 749 mmHg 89%

    28 May, Thursday

    Time Temperature Precipitation Wind Pressure Humidity
    00:00 +11°C° 0 mm 1 mps 749 mmHg 90%
    01:00 +10°C° 0 mm 1 mps 749 mmHg 90%
    02:00 +10°C° 0 mm 1 mps 749 mmHg 91%
    03:00 +11°C° 0 mm 1 mps 749 mmHg 91%
    04:00 +11°C° 0 mm 1 mps 749 mmHg 92%
    05:00 +11°C° 0 mm 1 mps 749 mmHg 92%
    06:00 +12°C° 0 mm 1 mps 749 mmHg 88%
    07:00 +13°C° 0 mm 1 mps 749 mmHg 85%
    08:00 +14°C° 0 mm 1 mps 749 mmHg 81%
    09:00 +15°C° 0.6 mm 1 mps 748 mmHg 78%
    10:00 +17°C° 0.6 mm 2 mps 748 mmHg 75%
    11:00 +18°C° 0.6 mm 2 mps 748 mmHg 72%
    12:00 +18°C° 0.8 mm 2 mps 747 mmHg 71%
    13:00 +18°C° 0.8 mm 2 mps 747 mmHg 71%
    14:00 +19°C° 0.8 mm 2 mps 747 mmHg 70%
    15:00 +18°C° 0.8 mm 2 mps 747 mmHg 74%
    16:00 +18°C° 0.8 mm 2 mps 746 mmHg 77%
    17:00 +18°C° 0.8 mm 2 mps 746 mmHg 81%
    18:00 +16°C° 0.2 mm 2 mps 746 mmHg 85%
    19:00 +15°C° 0.2 mm 2 mps 746 mmHg 88%
    20:00 +14°C° 0.2 mm 1 mps 746 mmHg 92%
    21:00 +13°C° 0 mm 2 mps 746 mmHg 93%
    22:00 +13°C° 0 mm 2 mps 746 mmHg 95%
    23:00 +12°C° 0 mm 2 mps 746 mmHg 96%

    29 May, Friday

    Time Temperature Precipitation Wind Pressure Humidity
    00:00 +12°C° 0.3 mm 2 mps 746 mmHg 97%
    01:00 +12°C° 0.3 mm 1 mps 745 mmHg 97%
    02:00 +12°C° 0.3 mm 1 mps 745 mmHg 98%
    03:00 +12°C° 0.4 mm 2 mps 745 mmHg 97%
    04:00 +13°C° 0.4 mm 2 mps 744 mmHg 97%
    05:00 +12°C° 0.4 mm 3 mps 744 mmHg 96%
    06:00 +12°C° 0.1 mm 3 mps 744 mmHg 96%
    07:00 +12°C° 0.1 mm 4 mps 743 mmHg 95%
    08:00 +12°C° 0.1 mm 4 mps 743 mmHg 94%
    09:00 +13°C° 0.6 mm 4 mps 743 mmHg 95%
    10:00 +13°C° 0.6 mm 4 mps 743 mmHg 96%
    11:00 +14°C° 0.6 mm 4 mps 742 mmHg 97%
    12:00 +16°C° 1 mm 3 mps 742 mmHg 94%
    13:00 +17°C° 1 mm 3 mps 742 mmHg 91%
    14:00 +19°C° 1 mm 3 mps 742 mmHg 89%
    15:00 +19°C° 0.8 mm 3 mps 742 mmHg 88%
    16:00 +19°C° 0.8 mm 3 mps 742 mmHg 88%
    17:00 +19°C° 0.8 mm 3 mps 742 mmHg 87%
    18:00 +18°C° 0.1 mm 2 mps 742 mmHg 90%
    19:00 +17°C° 0.1 mm 2 mps 742 mmHg 93%
    20:00 +15°C° 0.1 mm 1 mps 742 mmHg 96%
    21:00 +15°C° 0 mm 1 mps 743 mmHg 96%
    22:00 +14°C° 0 mm 1 mps 743 mmHg 96%
    23:00 +13°C° 0 mm 1 mps 743 mmHg 97%

    30 May, Saturday

    Time Temperature Precipitation Wind Pressure Humidity
    00:00 +13°C° 0 mm 1 mps 743 mmHg 97%
    01:00 +13°C° 0 mm 1 mps 744 mmHg 97%
    02:00 +12°C° 0 mm 1 mps 744 mmHg 98%
    03:00 +13°C° 0 mm 1 mps 744 mmHg 97%
    04:00 +13°C° 0 mm 1 mps 744 mmHg 97%
    05:00 +13°C° 0 mm 1 mps 745 mmHg 97%
    06:00 +14°C° 0 mm 1 mps 745 mmHg 93%
    07:00 +16°C° 0 mm 1 mps 745 mmHg 89%
    08:00 +18°C° 0 mm 1 mps 745 mmHg 85%
    09:00 +19°C° 0 mm 1 mps 745 mmHg 79%
    10:00 +21°C° 0 mm 1 mps 745 mmHg 72%
    11:00 +22°C° 0 mm 1 mps 745 mmHg 66%
    12:00 +22°C° 0.2 mm 1 mps 745 mmHg 69%
    13:00 +21°C° 0.2 mm 1 mps 745 mmHg 73%
    14:00 +21°C° 0.2 mm 1 mps 745 mmHg 76%
    15:00 +21°C° 0.3 mm 1 mps 744 mmHg 81%
    16:00 +19°C° 0.3 mm 2 mps 744 mmHg 85%
    17:00 +18°C° 0.3 mm 2 mps 744 mmHg 90%
    18:00 +18°C° 0.2 mm 2 mps 744 mmHg 92%
    19:00 +17°C° 0.2 mm 3 mps 744 mmHg 93%
    20:00 +17°C° 0.2 mm 3 mps 744 mmHg 95%
    21:00 +17°C° 0.1 mm 3 mps 743 mmHg 96%
    22:00 +16°C° 0.1 mm 3 mps 743 mmHg 96%
    23:00 +16°C° 0.1 mm 3 mps 743 mmHg 97%
    Show more